PST,Max TemperatureF,Mean TemperatureF,Min TemperatureF,Max Dew PointF,MeanDew PointF,Min DewpointF,Max Humidity, Mean Humidity, Min Humidity, Max Sea Level PressureIn, Mean Sea Level PressureIn, Min Sea Level PressureIn, Max VisibilityMiles, Mean VisibilityMiles, Min VisibilityMiles, Max Wind SpeedMPH, Mean Wind SpeedMPH, Max Gust SpeedMPH,PrecipitationIn, CloudCover, Events, WindDirDegrees
2012-11-1,81,70,61,58,55,53,76,60,45,30.02,29.99,29.96,7,6,4,17,12,22,0.00,7,Rain,295
2012-11-2,84,71,63,57,56,54,76,59,44,30.00,29.96,29.93,7,6,4,16,11,,0.00,5,Rain,299
2012-11-3,91,70,64,61,56,51,87,62,38,30.05,30.00,29.95,7,7,7,13,8,,0.00,2,,310
2012-11-4,104,80,70,53,41,29,48,27,12,30.08,30.03,30.01,7,7,7,14,5,,0.00,0,,317
2012-11-5,93,84,75,36,30,24,23,14,9,30.06,30.02,29.98,10,8,7,12,8,,0.00,0,,285
2012-11-6,87,76,61,59,44,25,56,33,10,30.06,30.02,29.99,10,9,7,14,7,,0.00,0,,258
2012-11-7,75,66,57,55,53,49,82,62,46,30.08,30.02,29.96,10,6,1,16,8,17,0.00,6,,277
2012-11-8,80,71,62,57,54,45,82,63,43,30.01,29.96,29.90,10,8,2,20,9,24,0.10,7,Rain,279
2012-11-9,69,64,59,50,45,41,60,49,42,29.97,29.93,29.91,10,9,7,21,16,31,0.00,4,,290
2012-11-10,64,60,57,46,44,41,62,52,47,30.17,30.08,29.98,10,8,4,25,17,33,0.07,2,,296
2012-11-11,64,58,53,45,38,33,61,44,33,30.27,30.23,30.17,10,9,7,16,12,23,0.00,0,,338
2012-11-12,79,68,57,51,40,18,57,40,11,30.25,30.18,30.12,10,10,10,22,12,,0.00,0,,323
2012-11-13,82,66,55,51,31,14,83,29,8,30.11,30.05,29.99,10,9,7,12,8,,0.00,0,,312
2012-11-14,81,72,64,54,33,13,59,28,8,30.04,30.00,29.98,10,9,7,10,5,,0.00,2,,206
2012-11-15,75,68,62,59,57,52,80,66,51,30.09,30.04,29.99,10,8,3,13,7,,0.01,6,Rain,146
2012-11-16,82,72,63,61,60,57,87,64,48,30.11,30.04,29.99,10,4,0,14,7,,0.00,8,Rain,145
2012-11-17,84,74,64,64,58,55,94,62,42,30.12,30.06,29.99,10,5,0,16,8,,0.09,7,Rain,255
2012-11-18,84,74,63,58,55,50,76,53,34,30.18,30.14,30.07,10,10,7,13,8,16,0.00,4,,265
2012-11-19,75,67,59,59,52,43,100,62,43,30.25,30.20,30.15,10,7,0,14,8,,0.00,3,Fog,294
2012-11-20,68,64,61,56,54,51,75,69,57,30.17,30.10,30.05,10,9,7,30,20,37,0.00,2,,298
2012-11-21,69,65,61,59,56,53,78,72,65,30.12,30.06,30.01,10,8,5,33,25,46,0.00,3,,299
2012-11-22,73,66,60,57,53,48,85,67,44,30.10,30.06,30.02,10,7,3,23,14,26,0.00,3,,303
2012-11-23,77,68,60,59,53,44,82,56,39,30.15,30.10,30.06,10,4,0,10,3,,0.00,1,,188
2012-11-24,82,76,70,45,38,29,39,26,14,30.06,29.99,29.92,10,9,7,12,5,,0.00,0,,289
2012-11-25,82,70,59,57,50,27,81,54,14,29.96,29.91,29.86,10,8,5,12,6,,0.00,4,,288
2012-11-26,69,63,57,52,50,46,82,66,49,30.10,30.03,29.97,10,9,5,7,4,,0.00,8,,267
2012-11-27,75,67,59,53,51,47,69,57,42,30.16,30.10,30.06,10,9,7,9,5,,0.00,5,,233
2012-11-28,75,67,59,61,57,53,86,68,53,30.16,30.11,30.06,10,5,0,16,9,21,0.09,6,Rain,146
2012-11-29,81,71,61,62,59,56,100,82,64,30.20,30.14,30.11,10,2,0,14,9,,0.37,8,Fog-Rain,183
2012-11-30,81,72,62,65,60,55,100,74,42,30.15,30.11,30.07,10,5,0,15,8,20,0.06,6,Fog-Rain,226